Weather in Jiangmen

China     22°27′37″N   113°01′27″E
temp.,
°C
wind,
m/s
gust,
m/s
humid.,
%
clouds,
%
prec.,
mm/h
press.,
hPa
HPBL,
m
16 april, fri
fri1623:00+24se578498 0.0 1013478
02:00+23se478699 0.1 1012513
05:00+23se4785100 0.2 1012495
08:00+24se4682100 0.3 1014547
11:00+25se567488 0.2 1015828
14:00+28se556391 0.4 10131199
17:00+27se556462 0.7 10121051
20:00+24sse357833 0.8 1014288
17 april, sat
sat1723:00+23ese118320 0.0 101675
02:00+23nne118533 0.0 101563
05:00+23n0185100 0.0 101480
08:00+24n1380100 0.0 1016254
11:00+27nne346481 0.1 10161106
14:00+29ene345596 0.8 10131355
17:00+27sse3466100 2.1 1013363
20:00+24se3481100 4.4 1015377
18 april, sun
sun1823:00+24se4681100 2.1 1017652
02:00+22ese61174100 2.7 1015785
05:00+22ese596296 0.1 1015673
08:00+22ese5962100 0.1 1016660
11:00+24ese785075 0.0 10171201
14:00+27ese774380 0.0 10141586
17:00+23ese685596 0.0 1013760
20:00+22ese5758100 0.0 1015763
19 april, mon
mon1923:00+21e5761100 0.0 1016736
02:00+19ese4677100 2.1 1015621
05:00+20ene3573100 0.0 1014743
08:00+20e3669100 0.1 1015522
11:00+22ene356093 0.1 1015898
14:00+23ne2353100 0.1 1012948
17:00+21sse1268100 0.4 1012471
20:00+20s1276100 0.7 1014279
20 april, tue
tue2023:00+20sse1378100 0.1 1014292
02:00+20e138180 0.1 1013256
05:00+20nnw018281 0.0 101387
08:00+22ese357150 0.0 1014777
11:00+26se345443 0.0 10141286
14:00+28sse654313 0.0 10121581
17:00+27se66437 0.0 10111234
20:00+23sse586236 0.0 1013500